DW3371 Weather Reports


time (UTC)temp
F
wind
direction
speed
knots
gust
knots
rain 1hr
in
rain 24hr
in
rain mn
in
humidity
%
barometer
mb
20260508043331 45 138 0.0 0.9 0.00 0.00 0.00 87 1015.0
20260508033335 44 139 0.0 0.0 0.00 0.00 0.00 87 1015.1
20260508030326 44 134 0.0 0.0 0.00 0.00 0.00 87 1015.1
20260508023325 44 0 0.9 3.5 0.00 0.00 0.00 87 1015.2
20260508020325 44 130 1.7 3.5 0.00 0.00 0.00 87 1015.0
20260508013329 44 130 1.7 5.2 0.00 0.00 0.00 86 1014.8
20260508010321 45 132 1.7 3.5 0.00 0.00 0.00 85 1014.9
20260508003319 46 141 1.7 3.5 0.00 0.00 0.00 85 1015.1
20260507233322 48 156 1.7 5.2 0.00 0.00 0.00 82 1015.3
20260507220310 50 167 3.5 7.8 0.00 0.00 0.00 78 1015.5
20260507210307 51 127 4.3 8.7 0.00 0.00 0.00 76 1015.2
20260507203307 51 133 2.6 7.0 0.00 0.00 0.00 75 1015.2
20260507200311 52 173 2.6 8.7 0.00 0.00 0.00 74 1014.7
20260507193305 54 128 5.2 9.6 0.00 0.00 0.00 71 1014.5
20260507190304 55 139 4.3 10.4 0.00 0.00 0.00 68 1014.4
20260507183312 57 147 5.2 10.4 0.00 0.00 0.00 66 1014.3
20260507180304 57 182 4.3 11.3 0.00 0.00 0.00 65 1013.9
20260507173305 59 153 3.5 7.8 0.00 0.00 0.00 60 1013.8
20260507170305 62 115 3.5 8.7 0.00 0.00 0.00 56 1013.8
20260507160305 58 138 1.7 3.5 0.00 0.00 0.00 63 1014.1
20260507150312 58 192 1.7 3.5 0.00 0.00 0.00 60 1014.4
20260507143303 58 0 1.7 3.5 0.00 0.00 0.00 60 1014.4
20260507140303 57 293 1.7 6.1 0.00 0.00 0.00 62 1014.4
20260507133307 58 258 2.6 6.1 0.00 0.00 0.00 62 1014.6
20260507130303 58 200 1.7 6.1 0.00 0.00 0.00 58 1014.6
20260507120307 60 74 4.3 11.3 0.00 0.00 0.00 57 1014.8
20260507110310 58 110 3.5 8.7 0.00 0.00 0.00 58 1015.0
20260507103304 57 64 3.5 7.0 0.00 0.00 0.00 61 1015.0
20260507100308 58 126 2.6 6.1 0.00 0.00 0.00 61 1015.2
20260507093304 56 196 3.5 8.7 0.00 0.00 0.00 64 1015.2
20260507090310 56 97 3.5 7.0 0.00 0.00 0.00 65 1015.0
20260507080312 53 172 3.5 8.7 0.00 0.00 0.00 73 1015.2
20260507073303 52 143 3.5 8.7 0.00 0.00 0.00 79 1015.1
20260507070303 49 84 0.0 5.2 0.00 0.00 0.00 86 1015.0
20260507063308 46 68 0.0 2.6 0.00 0.00 0.00 89 1014.9
20260507060303 44 39 0.0 1.7 0.00 0.00 0.00 89 1014.9
20260507053305 43 46 0.0 1.7 0.00 0.00 0.00 90 1014.7